Location: Newark
(54.8972°N, 99.8189°W)
Time: 13:33:42
(UTC+00:00)

Transit 2A - Pass Details

Date: 18 November 2019
Orbit: 602 x 957 km, 66.7° (Epoch: 07 December)

Event Time Altitude Azimuth Distance (km) Brightness Sun altitude
Rises 02:40:17 0° 317° (NW) 2,889 9.8 -34.9°
Reaches altitude 10° 02:42:34 10° 320° (NW) 1,965 8.7 -35.2°
Enters shadow 02:43:19 15° 321° (NW) 1,672 8.3 -35.3°
